This demonstration page uses our WeatherBlox Daily Observations layout. Learn more.

Hourly Observations for February 22, 2017

Temp ( °F °C ) Dew Point ( °F °C ) Humidity (%) Winds ( mph kmh ) Pressure ( in mb ) Visibility ( mi km ) Precip ( " mm )
12:54 am 00:54 Clear 54 12.2 35 1.7 49 49 SSW 12 19 29.75 1007 10 16.0934 0 0
1:54 am 01:54 Clear 50 10 34 1.1 54 54 SSW 3 6 29.75 1008 10 16.0934 0 0
2:54 am 02:54 Clear 48 8.9 34 1.1 58 58 Calm 29.73 1007 10 16.0934 0 0
3:54 am 03:54 Clear 45 7.2 34 1.1 66 66 SSE 8 13 29.73 1007 10 16.0934 0 0
4:54 am 04:54 Clear 43 6.1 34 1.1 71 71 S 12 19 29.7 1006 10 16.0934 0 0
5:54 am 05:54 Clear 41 5 33 0.6 73 73 SSE 6 9 29.69 1005 10 16.0934 0 0
6:54 am 06:54 Clear 40 4.4 33 0.6 77 77 S 3 6 29.69 1005 10 16.0934 0 0
7:54 am 07:54 Sunny 40 4.4 34 1.1 79 79 S 8 13 29.68 1005 10 16.0934 0 0
8:54 am 08:54 Sunny 48 8.9 35 1.7 61 61 WSW 6 9 29.68 1005 10 16.0934 0 0
9:54 am 09:54 Sunny 58 14.4 32 0 38 38 WNW 9 15 29.67 1005 10 16.0934 0 0
10:54 am 10:54 Sunny 66 18.9 33 0.6 29 29 NW 3 6 29.66 1005 10 16.0934 0 0
11:54 am 11:54 Sunny 72 22.2 36 2.2 27 27 NNW 18 30 29.66 1004 10 16.0934 0 0
12:54 pm 12:54 Sunny 75 23.9 37 2.8 25 25 N 18 30 29.64 1004 10 16.0934 0 0
1:54 pm 13:54 Sunny 75 23.9 36 2.2 24 24 NNW 12 19 29.63 1004 10 16.0934 0 0
2:54 pm 14:54 Sunny 75 23.9 35 1.7 23 23 N 12 19 29.63 1003 10 16.0934 0 0
3:54 pm 15:54 Sunny 75 23.9 31 -0.6 20 20 NW 13 20 29.65 1004 10 16.0934 0 0
4:54 pm 16:54 Sunny 73 22.8 27 -2.8 18 18 NNW 17 28 29.67 1005 10 16.0934 0 0
5:54 pm 17:54 Sunny 66 18.9 33 0.6 29 29 NNW 12 19 29.71 1006 10 16.0934 0 0
6:54 pm 18:54 Clear 57 13.9 34 1.1 42 42 N 9 15 29.74 1007 10 16.0934 0 0
7:54 pm 19:54 Clear 49 9.4 34 1.1 56 56 N 9 15 29.76 1008 10 16.0934 0 0
8:54 pm 20:54 Clear 47 8.3 33 0.6 59 59 N 10 17 29.78 1009 10 16.0934 0 0
9:54 pm 21:54 Clear 49 9.4 34 1.1 56 56 NNE 10 17 29.79 1009 10 16.0934 0 0
10:54 pm 22:54 Clear 43 6.1 35 1.7 74 74 NNE 10 17 29.78 1008 10 16.0934 0 0
11:54 pm 23:54 Clear 46 7.8 38 3.3 73 73 NNE 13 20 29.77 1008 10 16.0934 0 0

Powered by AerisWeather